Date,TemperatureHighF,TemperatureAvgF,TemperatureLowF,DewpointHighF,DewpointAvgF,DewpointLowF,HumidityHigh,HumidityAvg,HumidityLow,PressureMaxIn,PressureMinIn,WindSpeedMaxMPH,WindSpeedAvgMPH,GustSpeedMaxMPH,PrecipitationSumIn
2013-1-13,23.2,20.9,18.9,9.1,7.8,6.7,59,56,54,30.55,30.49,1,0,2,0.00
2013-1-14,13.3,4.0,-1.2,4.1,-2.1,-6.7,80,75,66,30.82,30.75,3,0,7,0.00
2013-1-15,21.4,10.0,7.0,15.6,5.0,2.1,83,80,77,30.95,30.77,0,0,1,0.01
2013-1-16,41.8,22.9,8.6,24.0,13.8,4.8,85,70,47,30.97,30.72,1,0,2,0.00
2013-1-17,14.6,9.6,7.6,11.5,5.9,3.3,88,85,82,30.88,30.82,0,0,1,0.00
2013-1-18,23.9,14.8,7.7,17.9,10.4,3.4,86,82,77,30.80,30.72,0,0,1,0.00
2013-1-19,17.8,12.6,10.0,13.8,9.1,6.6,87,86,84,30.83,30.81,1,0,2,0.00
2013-1-21,44.8,30.4,15.7,20.4,17.3,11.5,84,62,35,30.70,30.43,1,0,4,0.00
2013-1-22,29.7,18.1,12.8,23.4,14.0,9.1,87,84,77,30.55,30.42,0,0,1,0.00
2013-1-23,52.0,42.8,24.8,22.0,20.5,19.5,89,48,28,30.32,30.13,7,4,8,0.00
2013-1-24,37.6,35.5,34.7,35.5,32.8,31.8,92,90,89,30.33,30.19,0,0,17,0.04
2013-1-25,46.2,37.4,31.8,40.9,34.8,30.8,97,91,74,30.32,30.11,2,0,7,0.00
2013-1-26,55.9,41.1,32.1,38.8,25.7,20.4,95,57,27,30.11,29.83,17,7,22,0.01
2013-1-27,37.8,31.3,20.3,27.9,21.9,13.4,91,70,45,30.25,29.81,8,2,11,0.04
2013-1-28,36.8,29.6,14.6,24.9,20.2,9.2,83,68,46,30.37,30.24,4,1,8,0.00
2013-1-29,37.6,35.0,31.8,29.0,26.7,24.8,77,72,68,30.46,30.24,1,0,4,0.00
2013-1-30,34.6,31.1,29.1,26.9,25.6,24.8,85,80,72,30.50,30.46,2,0,4,0.00
2013-1-31,36.5,27.3,22.9,29.0,23.3,20.1,91,85,74,30.54,30.35,1,0,1,0.00
2013-2-1,34.4,25.7,21.6,21.6,19.3,17.2,84,77,58,30.49,30.45,1,0,1,0.00
2013-2-2,45.7,36.7,26.4,30.8,27.5,23.6,89,71,49,30.54,30.39,1,0,2,0.00
2013-2-3,56.9,38.2,25.7,29.2,24.3,20.4,89,62,24,30.42,30.23,8,1,13,0.00
2013-2-4,35.6,29.0,21.0,26.6,23.2,17.3,88,79,68,30.38,30.11,1,0,4,0.00
2013-2-5,47.6,29.6,26.4,27.1,23.8,16.1,85,80,28,30.16,30.00,7,0,8,0.00
2013-2-6,50.4,28.8,18.0,16.9,13.2,11.4,78,58,23,30.29,30.14,1,0,2,0.00
2013-2-7,47.7,35.8,27.2,27.1,11.7,-9.5,74,44,9,30.01,29.88,15,6,25,0.00
2013-2-8,32.9,32.3,31.5,17.9,17.2,16.6,56,53,51,30.04,30.02,13,11,15,0.00
2013-2-9,35.2,34.7,34.4,16.0,15.6,15.0,46,45,45,30.17,30.17,2,1,13,0.00
2013-2-10,26.1,23.1,20.3,17.0,13.4,12.0,71,66,60,30.31,30.27,2,0,6,0.00
2013-2-11,24.1,17.2,12.4,14.7,10.9,7.4,83,76,66,30.45,30.27,1,0,2,0.00
2013-2-12,35.9,20.8,15.9,19.8,13.0,10.0,80,73,51,30.60,30.49,1,0,2,0.00
2013-2-13,38.3,27.2,18.3,22.2,19.0,14.0,86,72,52,30.60,30.40,4,0,7,0.00
2013-2-14,50.5,27.5,18.6,26.5,19.5,14.3,87,75,38,30.60,30.39,5,1,8,0.00
2013-2-15,30.6,22.7,19.1,25.2,19.3,15.6,89,87,81,30.65,30.61,1,0,8,0.00
2013-2-16,38.5,38.5,38.5,24.1,24.1,24.1,56,56,56,30.39,30.39,0,0,1,0.00
2013-2-17,49.9,43.5,36.0,21.9,19.4,17.8,50,39,28,30.14,30.08,2,1,6,0.00
2013-2-18,54.7,43.0,25.3,21.4,19.0,15.5,77,40,21,30.18,29.86,14,2,18,0.00
2013-2-19,38.2,35.2,28.4,21.0,19.2,12.6,62,52,43,29.72,29.66,13,9,17,0.00
2013-2-20,30.4,26.1,24.1,19.9,15.0,11.0,77,63,49,30.08,30.00,2,0,4,0.00
2013-2-21,25.4,24.6,23.6,21.5,20.6,19.5,85,84,84,30.18,30.16,2,1,2,0.00
2013-2-23,38.2,36.3,32.8,6.3,5.4,4.3,32,27,24,30.21,30.12,14,11,18,0.00
2013-2-25,49.4,30.8,19.2,21.3,13.4,9.0,68,50,22,30.39,30.21,8,2,10,0.00
2013-2-26,25.6,19.3,15.1,13.8,10.4,8.3,78,69,49,30.48,30.44,1,0,4,0.00
2013-2-27,37.0,28.0,12.9,12.2,9.5,4.6,71,47,28,30.61,30.42,4,0,6,0.00
2013-2-28,26.4,24.1,23.2,14.4,12.9,12.1,63,62,60,30.58,30.54,0,0,0,0.00
2013-3-1,38.2,29.5,25.0,25.1,22.2,19.8,84,75,55,30.60,30.42,1,0,2,0.00
2013-3-2,68.3,64.5,39.5,28.4,21.7,18.7,64,21,16,30.36,30.09,13,8,21,0.00
2013-3-3,36.9,36.5,36.0,34.8,34.4,33.9,92,92,92,30.08,30.07,0,0,8,0.09
2013-3-4,27.3,27.1,27.0,25.5,25.3,25.2,93,93,93,30.22,30.22,0,0,0,0.00
2013-3-6,39.3,33.1,27.2,31.7,23.4,17.3,89,68,48,30.05,29.78,15,5,22,0.04
2013-3-7,35.6,31.3,26.3,30.9,27.5,18.6,92,86,71,30.04,29.91,2,0,4,0.04
2013-3-8,34.9,31.8,30.1,30.5,28.0,25.3,95,86,77,30.05,29.91,2,0,4,0.01
2013-3-9,51.7,43.9,34.4,27.3,19.2,13.0,75,39,21,30.34,30.26,8,2,13,0.00
2013-3-10,60.7,60.7,60.7,5.8,4.5,3.7,11,10,10,30.37,30.36,3,3,4,0.00
2013-3-11,41.6,32.7,21.8,20.0,17.4,13.6,72,55,41,30.42,30.25,0,0,1,0.00
2013-3-12,46.8,45.7,45.2,23.0,22.5,21.7,41,40,38,30.23,30.20,1,0,2,0.00
2013-3-13,37.0,35.8,31.8,24.1,23.1,22.7,73,60,56,30.25,30.14,3,1,3,0.00
2013-3-27,49.1,48.7,48.2,34.3,33.8,33.5,57,56,55,29.95,29.95,5,3,6,0.00
2013-3-28,62.3,54.1,44.2,39.8,33.7,26.9,75,50,27,30.09,29.96,10,2,11,0.00
2013-3-29,53.9,44.4,33.4,36.7,34.2,30.5,89,68,50,30.27,30.19,2,0,2,0.00
2013-3-30,69.6,50.6,34.1,34.4,30.2,25.4,74,50,23,30.15,29.95,3,0,7,0.00
2013-3-31,55.6,50.6,44.8,39.9,35.9,28.9,82,59,36,29.98,29.93,14,4,14,0.00
2013-4-1,58.0,52.7,36.6,33.8,31.6,29.8,83,47,35,30.09,30.00,9,6,14,0.00
2013-4-2,58.1,48.9,40.1,33.6,31.7,27.6,70,53,31,30.25,30.07,1,0,6,0.00
2013-4-3,66.3,56.4,47.7,33.9,32.7,25.0,54,41,24,30.17,29.95,8,2,9,0.00
2013-4-4,65.2,61.5,52.2,36.3,33.1,28.7,43,35,26,29.88,29.84,15,10,23,0.00
2013-4-5,67.4,58.6,50.5,28.8,24.3,19.7,38,27,19,30.04,29.94,8,5,11,0.00
2013-4-6,59.2,56.3,53.2,30.6,28.9,27.7,39,35,30,30.04,29.99,7,3,9,0.00
2013-4-7,61.3,55.8,50.2,29.1,24.4,21.0,44,30,21,29.96,29.85,7,3,9,0.00
2013-4-8,42.1,36.4,32.7,32.3,25.5,16.3,83,65,42,30.13,29.54,19,8,24,0.01
2013-4-9,37.3,33.1,24.5,17.9,16.9,15.8,72,52,43,30.23,30.11,8,4,11,0.00
2013-4-14,48.2,47.9,47.6,27.3,26.6,25.6,44,43,42,29.62,29.58,20,6,20,0.00
2013-4-15,55.7,43.7,31.5,33.5,22.7,10.9,89,48,18,29.85,29.54,24,4,24,0.01
2013-4-16,43.2,34.0,27.2,29.1,21.3,9.9,93,63,27,30.26,29.83,28,7,28,0.03
2013-4-17,52.9,35.5,18.9,20.6,14.3,5.9,85,47,17,30.42,30.25,20,3,20,0.00
2013-4-18,64.3,41.9,19.5,23.5,15.3,10.0,70,39,16,30.49,30.26,13,1,13,0.00
2013-4-19,68.3,49.7,28.4,31.2,24.2,17.0,66,40,18,30.34,30.04,23,4,23,0.00
2013-4-20,74.6,51.9,31.5,33.7,26.4,16.4,76,43,14,30.22,29.97,11,1,11,0.00
2013-4-21,78.3,55.4,31.6,39.6,28.9,20.3,65,41,14,30.15,29.91,16,2,16,0.00
2013-4-22,74.6,55.1,36.5,37.7,27.3,11.7,76,41,13,30.11,29.87,22,2,22,0.00
2013-4-23,67.8,47.6,29.3,21.7,14.7,9.6,55,30,12,30.24,29.93,14,2,14,0.00
2013-4-24,69.1,51.6,29.1,21.4,12.8,8.0,46,24,10,30.16,29.91,22,2,22,0.00
2013-4-25,75.3,52.5,29.5,31.4,19.2,10.4,49,30,11,30.08,29.92,17,2,17,0.00
2013-4-26,80.7,57.5,34.0,37.8,27.4,15.9,65,37,9,30.23,30.04,14,1,14,0.00
2013-4-27,81.1,61.1,40.1,40.4,32.3,24.0,69,39,14,30.23,30.00,17,2,17,0.00
2013-4-28,80.9,60.8,38.3,38.3,28.7,18.9,61,35,10,30.09,29.84,17,2,17,0.00
2013-4-29,81.1,61.5,39.9,39.4,34.1,29.7,72,40,17,29.95,29.65,20,2,20,0.00
2013-4-30,72.3,57.0,41.1,38.0,24.8,-1.6,73,33,12,30.09,29.65,23,4,23,0.00
2013-5-1,69.9,49.2,29.3,14.0,6.5,-2.1,49,19,6,30.44,30.08,18,3,18,0.00
2013-5-2,77.7,52.4,27.6,28.1,14.2,4.5,47,25,9,30.52,30.12,10,1,10,0.00
2013-5-3,79.6,58.5,36.9,30.6,21.9,15.0,48,27,12,30.17,29.83,18,2,18,0.00
2013-5-4,70.4,52.6,35.8,35.1,24.7,14.0,66,36,18,29.91,29.65,29,2,29,0.00
2013-5-5,64.8,50.7,39.3,46.2,40.1,30.3,91,70,37,29.81,29.64,18,2,18,0.11
2013-5-6,58.6,49.1,42.9,44.8,42.0,38.6,93,78,51,29.92,29.69,24,2,24,0.31
2013-5-7,59.8,48.4,41.8,45.5,41.1,36.2,93,78,44,29.99,29.88,23,2,23,0.24
2013-5-8,69.1,54.8,45.1,46.7,42.3,34.4,94,67,30,30.06,29.89,11,1,11,0.05
2013-5-9,76.5,59.5,41.5,48.9,41.0,34.4,90,55,22,30.09,29.91,18,2,18,0.00
2013-5-10,82.8,63.9,43.9,45.1,39.4,29.6,81,46,15,30.16,29.96,14,1,14,0.00
2013-5-11,85.7,65.7,43.8,45.1,37.6,22.4,76,42,12,30.16,29.97,16,2,16,0.00
2013-5-12,87.4,68.1,48.9,46.0,38.5,28.6,69,39,15,30.12,29.91,17,2,17,0.00
2013-5-13,86.3,68.2,46.5,46.7,36.0,28.9,78,37,14,30.01,29.83,21,3,21,0.00
2013-5-14,76.3,62.5,43.5,44.8,37.1,27.9,72,42,19,29.93,29.80,33,4,33,0.00
2013-5-15,79.2,62.0,42.2,42.9,28.5,17.0,72,35,11,29.93,29.78,21,3,21,0.00
2013-5-16,58.0,48.9,42.9,38.7,33.7,21.9,70,56,36,29.87,29.80,13,1,13,0.00
2013-5-17,69.1,54.6,37.8,38.4,31.5,23.4,88,47,19,29.96,29.82,18,3,18,0.00
2013-5-18,71.8,54.1,33.4,33.5,28.7,22.5,70,41,18,30.09,29.96,28,3,28,0.00
2013-5-19,71.6,55.2,40.6,37.9,31.4,20.1,70,44,20,30.14,29.97,16,2,16,0.00
2013-5-20,79.2,58.3,35.2,36.6,28.1,19.8,62,35,14,30.18,29.83,13,1,13,0.00
2013-5-21,76.0,63.2,44.3,35.5,26.8,13.4,67,29,14,29.88,29.59,33,8,33,0.00
2013-5-22,64.5,53.1,38.3,26.2,17.2,0.4,44,25,12,29.83,29.59,25,6,25,0.00
2013-5-23,63.2,45.5,28.5,26.7,17.8,10.2,68,37,16,29.91,29.80,20,3,20,0.00
2013-5-25,77.0,66.1,53.1,34.7,28.0,17.4,41,25,16,29.86,29.76,20,4,20,0.00
2013-5-26,72.0,57.7,39.1,33.0,28.0,23.4,65,35,17,29.97,29.83,22,3,22,0.00
2013-5-27,69.8,52.4,35.9,43.9,34.6,16.1,71,53,19,30.01,29.75,18,2,18,0.00
2013-5-28,70.3,59.2,50.8,44.8,37.6,29.5,79,48,23,29.81,29.72,20,5,20,0.00
2013-5-29,72.3,60.3,48.6,42.4,35.2,20.4,69,43,14,29.83,29.67,24,5,24,0.00
2013-5-30,78.1,59.0,37.6,40.5,32.0,14.8,79,42,10,29.94,29.80,22,3,22,0.00
2013-5-31,83.0,61.5,38.5,35.4,29.0,20.6,69,34,11,30.08,29.89,10,1,10,0.00
2013-6-1,87.8,65.7,40.1,44.6,31.1,20.4,52,30,12,30.02,29.69,14,1,14,0.00
2013-6-2,81.8,60.0,46.0,44.9,38.0,30.7,69,47,16,29.75,29.61,10,0,10,0.00
2013-6-8,90.3,78.5,67.3,46.3,42.6,39.4,38,29,19,29.72,29.62,8,0,8,0.00
2013-6-9,92.5,71.9,55.0,52.0,40.6,33.2,54,35,14,29.75,29.60,10,1,10,0.00
2013-6-14,70.4,62.0,52.8,33.9,27.9,23.0,45,28,19,29.86,29.78,10,1,10,0.00
2013-6-15,83.6,64.2,40.3,36.4,29.8,21.4,56,31,13,29.88,29.74,17,2,17,0.00
2013-6-16,81.6,64.6,41.1,37.4,31.2,15.1,65,33,12,29.96,29.84,22,3,22,0.00
2013-6-17,86.1,65.7,42.3,37.6,30.9,22.1,62,31,10,30.00,29.79,20,2,20,0.00
2013-6-18,77.7,63.9,45.2,33.4,25.4,17.5,58,26,12,29.81,29.63,31,8,31,0.00
2013-6-19,72.8,58.6,40.5,31.5,18.9,8.2,52,23,10,29.91,29.70,21,4,21,0.00
2013-6-20,76.5,58.0,35.9,35.7,27.3,19.0,62,35,12,29.97,29.80,17,2,17,0.00
2013-6-21,77.7,60.1,38.0,36.5,31.4,24.5,70,38,15,29.99,29.79,17,2,17,0.00
2013-6-22,83.8,64.0,41.2,39.0,33.5,28.4,69,36,17,29.95,29.69,18,2,18,0.00
2013-6-23,75.6,62.8,45.5,42.4,36.2,30.6,66,39,22,29.75,29.61,21,3,21,0.00
2013-6-24,71.6,60.6,52.2,49.9,42.3,34.1,68,51,41,29.76,29.57,29,5,29,0.01
2013-6-25,76.1,64.9,53.9,51.9,48.2,46.1,79,56,37,29.86,29.75,32,7,32,0.00
2013-6-26,90.1,72.5,53.3,53.6,46.5,38.8,76,44,17,29.92,29.78,22,4,22,0.00
2013-6-27,94.3,75.0,51.6,53.3,48.4,41.6,79,44,19,30.00,29.84,16,2,16,0.00
2013-6-28,99.0,74.5,56.6,54.4,48.5,33.9,67,44,13,29.96,29.76,24,2,24,0.00
2013-6-29,98.5,79.0,58.0,55.3,47.4,39.6,81,40,14,29.93,29.67,16,2,16,0.00
2013-6-30,99.9,80.0,56.7,53.1,46.7,40.0,62,35,13,29.79,29.62,15,2,15,0.00
2013-7-1,99.7,77.9,60.7,54.6,47.4,38.1,65,39,13,29.87,29.69,33,2,33,0.00
2013-7-2,99.0,77.1,64.0,58.4,51.6,41.2,71,46,15,29.93,29.73,30,2,30,0.00
2013-7-4,98.0,86.8,70.8,61.5,52.2,46.6,51,32,19,29.65,29.56,20,4,20,0.00
2013-7-5,70.8,64.7,59.6,52.6,52.0,51.0,77,64,52,29.61,29.56,1,0,1,0.00
2013-7-22,98.7,89.4,78.1,49.7,44.8,36.5,35,22,13,29.75,29.60,16,3,16,0.00
2013-7-23,92.5,81.2,71.8,55.5,47.6,43.3,48,32,19,29.84,29.75,14,2,14,0.00
2013-7-24,93.4,76.7,58.0,51.8,48.1,43.0,70,40,21,29.90,29.73,18,2,18,0.00
2013-7-25,90.1,70.1,58.1,62.2,53.1,46.2,89,59,23,30.05,29.78,32,2,32,0.03
2013-7-26,94.5,74.8,55.3,59.4,52.8,45.0,93,54,22,30.08,29.83,17,2,17,0.00
2013-7-27,95.4,75.3,54.5,49.8,44.9,32.3,74,39,12,29.93,29.66,16,2,16,0.00
2013-7-28,91.4,74.3,54.4,46.9,42.6,31.7,65,36,17,29.78,29.61,18,2,18,0.00
2013-7-29,91.0,72.1,51.1,46.3,38.3,31.3,67,34,14,29.85,29.66,22,3,22,0.00
2013-7-30,89.9,72.5,51.4,45.4,39.8,32.5,68,35,14,29.98,29.82,20,2,20,0.00
2013-7-31,89.9,73.5,56.9,48.4,39.4,30.5,62,33,13,29.93,29.75,24,3,24,0.00
2013-8-1,84.5,69.8,52.9,39.8,29.7,19.0,46,25,10,29.89,29.77,17,3,17,0.00
2013-8-2,86.3,64.2,40.1,36.0,27.4,18.0,56,29,11,30.00,29.76,18,2,18,0.00
2013-8-3,89.3,68.3,45.8,41.6,35.1,27.1,56,33,13,29.92,29.72,15,1,15,0.00
2013-8-4,91.8,70.7,47.9,40.7,36.3,28.9,63,33,12,29.93,29.73,16,2,16,0.00
2013-8-5,91.0,70.6,48.2,39.5,34.1,25.1,55,30,11,29.95,29.75,16,1,16,0.00
2013-8-6,93.6,70.5,48.5,43.3,34.6,-99.9,55,31,10,29.93,29.72,23,1,23,0.00
2013-8-7,84.5,71.1,57.0,42.4,37.8,30.5,53,31,17,29.86,29.75,23,3,23,0.00
2013-8-8,84.1,66.4,46.2,44.7,37.1,13.6,65,38,9,29.91,29.72,16,2,16,0.00
2013-8-9,88.8,67.1,48.8,45.0,37.9,24.4,72,40,11,29.85,29.68,18,2,18,0.00
2013-8-10,84.9,64.9,43.6,42.2,33.7,24.4,61,35,12,29.95,29.80,18,2,18,0.00
2013-8-11,86.3,66.0,45.1,41.5,37.0,27.5,71,39,16,30.00,29.79,16,2,16,0.00
2013-8-12,90.3,67.4,45.7,40.3,35.5,25.6,68,36,11,29.95,29.79,20,2,20,0.00
2013-8-13,92.3,68.5,44.6,38.2,32.5,22.7,58,31,10,30.01,29.79,16,1,16,0.00
2013-8-14,60.5,54.6,50.5,35.5,32.0,28.4,45,42,36,29.89,29.86,1,0,1,0.00
2013-8-21,80.5,79.0,77.4,51.3,48.3,44.6,37,34,30,29.82,29.79,15,4,15,0.00
2013-8-23,83.8,74.5,56.3,41.6,37.3,31.2,53,28,16,29.80,29.69,15,2,15,0.00
2013-8-24,84.9,64.3,43.5,40.5,34.4,25.6,69,38,12,29.85,29.71,21,2,21,0.00
2013-8-25,82.0,65.5,47.7,42.4,37.7,30.7,62,39,19,29.87,29.74,26,5,26,0.00
2013-8-26,81.6,66.1,47.9,42.4,36.6,29.1,62,37,15,29.96,29.78,31,3,31,0.00
2013-8-27,83.2,65.3,46.2,46.2,41.5,35.7,69,45,22,29.92,29.71,11,1,11,0.00
2013-8-28,85.1,68.7,52.2,51.0,45.8,41.1,78,47,25,29.85,29.71,20,2,20,0.00
2013-8-29,87.6,72.0,55.1,49.0,39.6,30.0,62,35,13,29.93,29.80,24,6,24,0.00
2013-8-30,93.8,71.2,48.6,42.5,37.6,27.9,64,35,10,30.05,29.82,18,1,18,0.00
2013-8-31,92.1,71.1,51.0,45.8,40.6,36.7,64,37,16,29.95,29.74,16,2,16,0.00
2013-9-1,87.0,64.5,56.0,47.4,42.8,37.2,63,48,22,29.86,29.74,4,0,4,0.00
2013-9-5,85.3,76.2,69.6,44.6,38.1,30.2,40,27,14,29.79,29.73,24,10,24,0.00
2013-9-6,86.7,70.6,52.3,43.7,40.4,35.9,67,36,18,29.95,29.72,17,2,17,0.00
2013-9-7,90.5,66.6,45.2,41.0,35.9,23.6,66,38,10,29.95,29.74,14,1,14,0.00
2013-9-8,89.3,66.2,44.2,38.9,34.0,29.1,59,35,14,29.98,29.73,17,1,17,0.00
2013-9-9,87.2,65.7,44.8,39.9,34.5,27.4,61,35,12,29.95,29.70,16,1,16,0.00
2013-9-10,88.6,65.6,44.6,40.1,33.2,24.6,59,34,10,29.91,29.71,14,1,14,0.00
2013-9-11,88.8,71.9,52.8,42.8,38.0,30.0,52,32,13,29.94,29.76,11,2,16,0.00
2013-9-12,85.9,66.9,49.8,55.8,44.3,37.3,79,47,23,29.94,29.73,26,2,26,0.01
2013-9-13,85.5,66.4,49.1,52.3,47.0,39.9,86,55,21,29.92,29.69,21,1,21,0.00
2013-9-14,84.0,59.8,48.9,47.3,43.6,39.9,74,58,22,29.83,29.66,8,0,8,0.00
2013-12-5,12.1,10.4,8.3,7.2,5.5,3.5,82,80,78,30.31,30.29,0,0,1,0.00
2013-12-6,36.2,20.2,5.2,22.7,9.5,0.1,91,66,27,30.37,29.84,21,5,35,0.01
2013-12-7,29.4,23.4,10.2,25.2,16.0,3.8,93,75,39,30.35,29.77,20,4,30,0.00
2013-12-8,21.4,9.0,-1.4,9.5,1.9,-7.2,83,73,58,30.75,30.32,3,0,6,0.00
2013-12-9,22.4,4.9,-7.5,9.4,-2.5,-13.6,79,71,54,31.04,30.75,4,0,8,0.00
2013-12-10,27.6,18.2,-0.2,13.8,8.9,-5.8,81,67,50,30.88,30.61,1,0,4,0.00
2013-12-11,26.3,11.3,2.4,14.5,5.2,-2.6,83,77,60,30.80,30.64,0,0,2,0.00
2013-12-12,34.7,17.9,3.2,18.4,9.8,-1.9,83,71,47,30.76,30.49,2,0,6,0.00
2013-12-13,43.8,21.7,6.5,20.5,12.3,1.9,86,70,32,30.77,30.45,2,0,7,0.01
2013-12-14,40.6,20.8,6.9,21.6,12.8,2.3,85,72,42,30.92,30.68,1,0,2,0.00
2013-12-15,43.5,22.1,7.9,23.9,14.7,3.5,87,75,44,30.86,30.60,1,0,6,0.00
2013-12-16,42.5,23.8,11.4,25.3,16.2,7.2,88,74,44,30.83,30.58,2,0,4,0.00
2013-12-17,38.5,25.0,14.1,26.9,19.0,10.4,87,78,59,30.71,30.36,1,0,2,0.00
2013-12-18,56.7,36.0,20.5,34.7,24.7,17.0,88,67,29,30.36,29.67,16,2,25,0.00
2013-12-19,44.1,32.7,18.3,30.5,25.6,11.4,93,77,37,30.21,29.62,12,4,18,0.04
2013-12-20,34.1,20.5,7.9,21.4,13.7,3.3,86,75,54,30.39,30.19,1,0,6,0.02
2013-12-21,49.9,29.4,16.1,33.6,22.5,12.1,89,77,47,30.37,30.13,5,0,8,0.01
2013-12-22,53.8,31.8,19.4,32.6,24.4,16.4,91,76,43,30.58,30.30,2,0,6,0.00
2013-12-23,53.9,31.1,19.4,32.8,24.3,16.7,92,79,42,30.70,30.45,1,0,4,0.01
2013-12-24,52.2,33.1,18.8,33.9,24.6,15.3,90,74,38,30.71,30.47,4,0,7,0.00
2013-12-25,48.2,33.5,20.0,31.9,26.0,16.7,92,75,48,30.76,30.52,1,0,6,0.00
2013-12-26,48.5,27.7,14.6,24.0,17.5,11.2,88,69,32,30.74,30.52,1,0,2,0.00
2013-12-27,44.5,27.2,12.3,24.3,17.8,7.6,84,70,41,30.70,30.32,1,0,4,0.00
2013-12-28,48.3,28.3,13.8,24.3,16.4,7.6,86,65,29,30.58,30.30,6,1,10,0.00
2013-12-29,46.2,25.5,11.6,23.2,16.1,7.3,87,70,36,30.68,30.45,2,0,4,0.00
2013-12-30,48.0,29.0,13.8,23.7,17.8,9.6,86,66,32,30.64,30.38,1,0,4,0.00
2013-12-31,54.7,35.4,24.2,27.0,21.3,16.9,83,60,24,30.48,30.26,4,0,7,0.00
2014-1-1,52.8,38.0,23.8,21.9,19.8,16.7,76,51,25,30.57,30.34,3,0,6,0.00
2014-1-2,53.3,30.1,16.1,25.0,18.7,11.8,86,66,29,30.56,30.28,1,0,4,0.00